Regional Weather Roundup
Issued by NWS

Home | Current Version | Previous Version | Text Only | Print | Product List | Glossary Off
Versions: 1 2 3 4 5 6 7 8 9 10 11 12 13 14 15 16 17 18 19 20 21 22 23 24 25 26 27 28 29 30 31 32 33 34 35 36 37 38 39 40 41 42 43 44 45 46 47 48 49 50

000
ASUS43 KFSD 242202
RWRSD

WEATHER ROUNDUP FOR SOUTH DAKOTA
NATIONAL WEATHER SERVICE SIOUX FALLS SD
500 PM CDT FRI APR 24 2015

NOTE: "FAIR" INDICATES FEW OR NO CLOUDS BELOW 12,000 FEET WITH NO
SIGNIFICANT WEATHER AND/OR OBSTRUCTIONS TO VISIBILITY.


SDZ001>005-009-010-012>017-242300-
NORTHWEST AND NORTH CENTRAL SOUTH DAKOTA

CITY           SKY/WX    TMP DP  RH WIND       PRES   REMARKS
BUFFALO          N/A     69  31  24 E9G21     29.52F
FAITH            N/A     72  32  23 E12       29.55F
MOBRIDGE       SUNNY     72  44  36 N13G24    29.53F
$$

SDZ012>016-024>037-041>051-057-063-072>074-242300-
SOUTHWEST AND SOUTH CENTRAL SOUTH DAKOTA

CITY           SKY/WX    TMP DP  RH WIND       PRES   REMARKS
RAPID CTY ARPT LGT RAIN  57  47  69 NW16      29.56F
PIERRE         SUNNY     75  45  34 N14       29.49S
CUSTER         CLOUDY    48  42  80 NW6       29.65F
ELLSWORTH AFB  CLOUDY    62  44  51 SW10      29.57S
PHILIP         MOSUNNY   75  44  33 NE18      29.49F
PINE RIDGE     MOSUNNY   70  38  31 CALM      29.53F
WINNER         FAIR      78  38  23 W3        29.47F
$$

SDZ004>011-016>023-039-040-242300-
NORTHEAST SOUTH DAKOTA

CITY           SKY/WX    TMP DP  RH WIND       PRES   REMARKS
ABERDEEN       LGT RAIN  58  50  75 E14       29.55S
WATERTOWN      PTSUNNY   68  47  46 E9        29.57F
BROOKINGS      PTSUNNY   64  48  55 SE15      29.58F
SISSETON         N/A     57  46  66 SE18      29.63S
$$

SDZ017-020-022-023-036>040-048>070-242300-
SOUTHEAST SOUTH DAKOTA

CITY           SKY/WX    TMP DP  RH WIND       PRES   REMARKS
SIOUX FALLS    PTSUNNY   73  51  46 SE15      29.52F
HURON            N/A     76  47  35 E6        29.48F
MITCHELL       MOSUNNY   80  48  32 SE14      29.46F
YANKTON        MOSUNNY   75  52  43 S18       29.48F
$$

ABBREVIATIONS USED IN REMARKS
   TC - TEMPERATURE IN CELSIUS
  WCI - WIND CHILL INDEX
   HX - HEAT INDEX
  VSB - VISIBILITY




USA.gov is the U.S. government's official web portal to all federal, state and local government web resources and services.